Climatologie pour Saint-Brevin les Pins
Jour • Résumé pour février 20, 2017 Système :  Métrique    Anglais   Mixte
« - 1 jour
+ 1 jour »
Jour Semaine Mois Année Personnalisé
  Maximum : Minimum : Moyenne :
Température sous abri : 11.0 °C 8.4 °C 9.8 °C
Point de rosée : 10.7 °C 7.9 °C 9.5 °C
Humidité : 99 % 96 % 98 %
Vitesse du vent : 16.1 km/h 0.0 km/h 5.9 km/h
Rafale : 19.3 km/h - -
Direction :- - West
Pression : 1027.3 hPa 1024.9 hPa -
Précipitations : 2.3 mm    
Historical Graphs
 
 
Tableau de données pour février 20, 2017
Heure Tempé Pt rosée Pression Vent Vitesse Rafale Humidité Taux pluie (/hr) Soleil
00:00 8.4 °C 7.9 °C 1027.3 hPa Calm   4.8 km/h 97 % 0.0 mm 0 W/m2
00:05 8.4 °C 8.0 °C 1027.3 hPa West 1.6 km/h 3.2 km/h 97 % 0.0 mm 0 W/m2
00:10 8.5 °C 8.1 °C 1027.3 hPa West 4.8 km/h 4.8 km/h 97 % 0.0 mm 0 W/m2
00:15 8.5 °C 8.1 °C 1027.3 hPa Calm   6.4 km/h 97 % 0.0 mm 0 W/m2
00:20 8.6 °C 8.3 °C 1027.3 hPa Calm   6.4 km/h 98 % 0.0 mm 0 W/m2
00:25 8.7 °C 8.4 °C 1027.3 hPa WNW 1.6 km/h 6.4 km/h 98 % 0.0 mm 0 W/m2
00:30 8.7 °C 8.3 °C 1027.3 hPa West 1.6 km/h 6.4 km/h 97 % 0.0 mm 0 W/m2
00:35 8.8 °C 8.3 °C 1027.3 hPa West 6.4 km/h 8.0 km/h 97 % 0.0 mm 0 W/m2
00:40 8.8 °C 8.5 °C 1027.3 hPa West 8.0 km/h 8.0 km/h 98 % 0.0 mm 0 W/m2
00:45 8.9 °C 8.6 °C 1027.3 hPa West 4.8 km/h 8.0 km/h 98 % 0.0 mm 0 W/m2
00:50 8.9 °C 8.6 °C 1027.3 hPa West 1.6 km/h 8.0 km/h 98 % 0.0 mm 0 W/m2
00:55 9.0 °C 8.5 °C 1027.0 hPa West 6.4 km/h 8.0 km/h 97 % 0.0 mm 0 W/m2
01:00 8.9 °C 8.5 °C 1027.0 hPa WSW 1.6 km/h 8.0 km/h 97 % 0.0 mm 0 W/m2
01:05 8.9 °C 8.4 °C 1027.0 hPa WSW 4.8 km/h 8.0 km/h 97 % 0.0 mm 0 W/m2
01:10 8.9 °C 8.5 °C 1027.0 hPa West 4.8 km/h 8.0 km/h 97 % 0.0 mm 0 W/m2
01:15 9.0 °C 8.5 °C 1027.0 hPa WSW 8.0 km/h 9.7 km/h 97 % 0.0 mm 0 W/m2
01:20 8.9 °C 8.5 °C 1027.0 hPa West 4.8 km/h 9.7 km/h 97 % 0.0 mm 0 W/m2
01:25 9.0 °C 8.5 °C 1027.0 hPa WSW 6.4 km/h 9.7 km/h 97 % 0.0 mm 0 W/m2
01:30 9.1 °C 8.6 °C 1027.0 hPa WSW 3.2 km/h 9.7 km/h 97 % 0.0 mm 0 W/m2
01:35 9.1 °C 8.7 °C 1027.0 hPa WSW 6.4 km/h 11.3 km/h 97 % 0.0 mm 0 W/m2
01:40 9.1 °C 8.7 °C 1027.0 hPa West 6.4 km/h 11.3 km/h 97 % 0.0 mm 0 W/m2
01:45 9.2 °C 8.7 °C 1027.0 hPa WSW 4.8 km/h 11.3 km/h 97 % 0.0 mm 0 W/m2
01:50 9.2 °C 8.7 °C 1027.0 hPa WSW 6.4 km/h 12.9 km/h 97 % 0.0 mm 0 W/m2
01:55 9.2 °C 8.8 °C 1027.0 hPa SW 9.7 km/h 14.5 km/h 97 % 0.0 mm 0 W/m2
02:00 9.2 °C 8.8 °C 1026.6 hPa SW 8.0 km/h 14.5 km/h 97 % 0.0 mm 0 W/m2
02:05 9.3 °C 8.8 °C 1027.0 hPa WSW 9.7 km/h 11.3 km/h 97 % 0.0 mm 0 W/m2
02:10 9.3 °C 8.9 °C 1026.6 hPa WSW 6.4 km/h 14.5 km/h 97 % 0.0 mm 0 W/m2
02:15 9.3 °C 8.9 °C 1026.6 hPa WSW 9.7 km/h 14.5 km/h 97 % 0.0 mm 0 W/m2
02:20 9.4 °C 8.9 °C 1026.6 hPa SW 3.2 km/h 12.9 km/h 97 % 0.0 mm 0 W/m2
02:30 9.4 °C 8.8 °C 1026.6 hPa WSW 6.4 km/h 14.5 km/h 96 % 0.0 mm 0 W/m2
02:35 9.4 °C 8.8 °C 1026.6 hPa WSW 4.8 km/h 14.5 km/h 96 % 0.0 mm 0 W/m2
02:40 9.4 °C 8.8 °C 1026.6 hPa WSW 9.7 km/h 12.9 km/h 96 % 0.0 mm 0 W/m2
02:45 9.4 °C 8.8 °C 1026.6 hPa WSW 11.3 km/h 12.9 km/h 96 % 0.0 mm 0 W/m2
02:50 9.5 °C 8.9 °C 1026.6 hPa WSW 4.8 km/h 12.9 km/h 96 % 0.0 mm 0 W/m2
02:55 9.6 °C 8.9 °C 1026.6 hPa WSW 12.9 km/h 16.1 km/h 96 % 0.0 mm 0 W/m2
03:00 9.6 °C 8.9 °C 1026.6 hPa WSW 11.3 km/h 16.1 km/h 96 % 0.0 mm 0 W/m2
03:05 9.6 °C 8.9 °C 1026.6 hPa West 14.5 km/h 16.1 km/h 96 % 0.0 mm 0 W/m2
03:10 9.6 °C 8.9 °C 1026.3 hPa WSW 4.8 km/h 16.1 km/h 96 % 0.0 mm 0 W/m2
03:15 9.6 °C 8.9 °C 1026.3 hPa WSW 9.7 km/h 14.5 km/h 96 % 0.0 mm 0 W/m2
03:20 9.6 °C 9.0 °C 1026.3 hPa SW 4.8 km/h 17.7 km/h 96 % 0.0 mm 0 W/m2
03:30 9.6 °C 8.9 °C 1026.3 hPa West 8.0 km/h 14.5 km/h 96 % 0.0 mm 0 W/m2
03:40 9.6 °C 9.0 °C 1026.0 hPa WSW 4.8 km/h 17.7 km/h 96 % 0.3 mm 0 W/m2
03:45 9.6 °C 9.0 °C 1026.0 hPa West 4.8 km/h 16.1 km/h 96 % 0.3 mm 0 W/m2
03:50 9.6 °C 8.9 °C 1026.0 hPa Calm   16.1 km/h 96 % 0.3 mm 0 W/m2
03:55 9.5 °C 8.9 °C 1026.0 hPa WSW 6.4 km/h 16.1 km/h 96 % 0.3 mm 0 W/m2
04:00 9.5 °C 9.0 °C 1026.0 hPa West 12.9 km/h 16.1 km/h 97 % 0.3 mm 0 W/m2
04:05 9.5 °C 9.0 °C 1026.0 hPa West 4.8 km/h 17.7 km/h 97 % 0.3 mm 0 W/m2
04:10 9.5 °C 9.0 °C 1026.0 hPa SW 4.8 km/h 17.7 km/h 97 % 0.3 mm 0 W/m2
04:20 9.5 °C 9.0 °C 1026.0 hPa West 9.7 km/h 17.7 km/h 97 % 0.3 mm 0 W/m2
04:25 9.6 °C 9.1 °C 1025.6 hPa WSW 9.7 km/h 16.1 km/h 97 % 0.3 mm 0 W/m2
04:30 9.6 °C 9.1 °C 1025.6 hPa West 11.3 km/h 12.9 km/h 97 % 0.3 mm 0 W/m2
04:35 9.6 °C 9.2 °C 1025.6 hPa WSW 9.7 km/h 16.1 km/h 97 % 0.3 mm 0 W/m2
04:40 9.6 °C 9.2 °C 1025.6 hPa West 3.2 km/h 16.1 km/h 97 % 0.0 mm 0 W/m2
04:45 9.6 °C 9.1 °C 1025.6 hPa WNW 8.0 km/h 16.1 km/h 97 % 0.3 mm 0 W/m2
04:50 9.6 °C 9.1 °C 1025.6 hPa WSW 8.0 km/h 16.1 km/h 97 % 0.3 mm 0 W/m2
04:55 9.6 °C 9.3 °C 1025.6 hPa SW 1.6 km/h 14.5 km/h 98 % 0.3 mm 0 W/m2
05:00 9.5 °C 9.2 °C 1025.6 hPa WSW 8.0 km/h 14.5 km/h 98 % 0.3 mm 0 W/m2
05:05 9.4 °C 9.0 °C 1025.6 hPa WSW 6.4 km/h 14.5 km/h 97 % 0.3 mm 0 W/m2
05:10 9.4 °C 9.0 °C 1025.6 hPa WSW 11.3 km/h 14.5 km/h 97 % 0.3 mm 0 W/m2
05:15 9.4 °C 9.1 °C 1025.6 hPa WSW 8.0 km/h 12.9 km/h 98 % 0.3 mm 0 W/m2
05:20 9.4 °C 9.1 °C 1025.6 hPa WSW 6.4 km/h 14.5 km/h 98 % 0.3 mm 0 W/m2
05:25 9.4 °C 9.1 °C 1025.6 hPa WSW 1.6 km/h 14.5 km/h 98 % 0.3 mm 0 W/m2
05:30 9.4 °C 9.1 °C 1025.6 hPa WSW 3.2 km/h 11.3 km/h 98 % 0.3 mm 0 W/m2
05:35 9.4 °C 9.1 °C 1025.6 hPa WSW 6.4 km/h 12.9 km/h 98 % 0.3 mm 0 W/m2
05:40 9.4 °C 9.1 °C 1025.6 hPa SW 3.2 km/h 12.9 km/h 98 % 0.3 mm 0 W/m2
05:45 9.4 °C 9.1 °C 1025.6 hPa SW 3.2 km/h 11.3 km/h 98 % 0.3 mm 0 W/m2
05:50 9.4 °C 9.1 °C 1025.6 hPa Calm   11.3 km/h 98 % 0.3 mm 0 W/m2
05:55 9.3 °C 9.0 °C 1025.6 hPa WSW 4.8 km/h 11.3 km/h 98 % 0.3 mm 0 W/m2
06:00 9.3 °C 9.0 °C 1025.3 hPa WSW 11.3 km/h 11.3 km/h 98 % 0.3 mm 0 W/m2
06:05 9.3 °C 9.0 °C 1025.3 hPa West 1.6 km/h 11.3 km/h 98 % 0.3 mm 0 W/m2
06:10 9.3 °C 9.0 °C 1025.3 hPa WSW 3.2 km/h 14.5 km/h 98 % 0.3 mm 0 W/m2
06:15 9.3 °C 9.0 °C 1025.6 hPa SW 8.0 km/h 14.5 km/h 98 % 0.3 mm 0 W/m2
06:20 9.3 °C 9.0 °C 1025.3 hPa WSW 4.8 km/h 12.9 km/h 98 % 0.3 mm 0 W/m2
06:25 9.3 °C 9.0 °C 1025.3 hPa WSW 3.2 km/h 12.9 km/h 98 % 0.3 mm 0 W/m2
06:30 9.3 °C 9.0 °C 1025.3 hPa WSW 9.7 km/h 12.9 km/h 98 % 0.3 mm 0 W/m2
06:35 9.3 °C 9.0 °C 1025.3 hPa WSW 3.2 km/h 14.5 km/h 98 % 0.3 mm 0 W/m2
06:40 9.3 °C 9.0 °C 1025.3 hPa SSW 1.6 km/h 17.7 km/h 98 % 0.0 mm 0 W/m2
06:45 9.3 °C 9.0 °C 1025.3 hPa WSW 8.0 km/h 17.7 km/h 98 % 0.0 mm 0 W/m2
06:50 9.3 °C 9.0 °C 1025.3 hPa West 6.4 km/h 17.7 km/h 98 % 0.0 mm 0 W/m2
06:55 9.3 °C 9.0 °C 1025.3 hPa SW 9.7 km/h 17.7 km/h 98 % 0.0 mm 0 W/m2
07:00 9.3 °C 9.0 °C 1025.3 hPa SW 1.6 km/h 16.1 km/h 98 % 0.0 mm 0 W/m2
07:05 9.3 °C 9.0 °C 1025.3 hPa West 6.4 km/h 17.7 km/h 98 % 0.3 mm 0 W/m2
07:10 9.3 °C 9.0 °C 1025.3 hPa SW 3.2 km/h 17.7 km/h 98 % 0.3 mm 0 W/m2
07:15 9.2 °C 8.9 °C 1025.3 hPa WSW 9.7 km/h 12.9 km/h 98 % 0.3 mm 0 W/m2
07:20 9.2 °C 8.9 °C 1025.3 hPa SW 8.0 km/h 12.9 km/h 98 % 0.3 mm 0 W/m2
07:25 9.3 °C 9.0 °C 1025.3 hPa West 11.3 km/h 14.5 km/h 98 % 0.3 mm 0 W/m2
07:30 9.3 °C 9.0 °C 1025.3 hPa WSW 4.8 km/h 16.1 km/h 98 % 0.3 mm 0 W/m2
07:35 9.3 °C 9.0 °C 1025.3 hPa SW 11.3 km/h 19.3 km/h 98 % 0.3 mm 0 W/m2
07:40 9.3 °C 9.0 °C 1025.3 hPa SW 4.8 km/h 19.3 km/h 98 % 0.3 mm 0 W/m2
07:45 9.3 °C 9.0 °C 1025.3 hPa SW 6.4 km/h 14.5 km/h 98 % 0.3 mm 0 W/m2
07:50 9.3 °C 9.0 °C 1025.3 hPa SW 6.4 km/h 14.5 km/h 98 % 0.3 mm 0 W/m2
07:55 9.3 °C 9.0 °C 1025.3 hPa SSW 3.2 km/h 14.5 km/h 98 % 0.3 mm 0 W/m2
08:00 9.3 °C 9.0 °C 1025.3 hPa SW 4.8 km/h 11.3 km/h 98 % 0.5 mm 0 W/m2
08:05 9.3 °C 9.0 °C 1025.6 hPa SW 4.8 km/h 11.3 km/h 98 % 0.3 mm 0 W/m2
08:10 9.3 °C 9.0 °C 1025.3 hPa SW 3.2 km/h 12.9 km/h 98 % 0.5 mm 0 W/m2
08:15 9.3 °C 9.0 °C 1025.6 hPa West 9.7 km/h 12.9 km/h 98 % 0.5 mm 0 W/m2
08:20 9.3 °C 9.0 °C 1025.6 hPa Calm   9.7 km/h 98 % 0.5 mm 0 W/m2
08:25 9.3 °C 9.0 °C 1025.6 hPa West 1.6 km/h 14.5 km/h 98 % 0.5 mm 5 W/m2
08:30 9.3 °C 9.2 °C 1025.6 hPa WSW 6.4 km/h 14.5 km/h 99 % 0.8 mm 5 W/m2
08:35 9.4 °C 9.3 °C 1025.6 hPa WSW 9.7 km/h 14.5 km/h 99 % 0.8 mm 5 W/m2
08:40 9.5 °C 9.2 °C 1025.6 hPa WSW 3.2 km/h 16.1 km/h 98 % 1.0 mm 0 W/m2
08:45 9.6 °C 9.3 °C 1025.6 hPa WSW 9.7 km/h 16.1 km/h 98 % 1.0 mm 7 W/m2
08:50 9.6 °C 9.3 °C 1025.6 hPa WSW 6.4 km/h 14.5 km/h 98 % 1.3 mm 7 W/m2
08:55 9.6 °C 9.3 °C 1025.6 hPa West 4.8 km/h 12.9 km/h 98 % 1.3 mm 16 W/m2
09:00 9.8 °C 9.5 °C 1025.6 hPa West 6.4 km/h 14.5 km/h 98 % 1.0 mm 16 W/m2
09:05 9.8 °C 9.7 °C 1025.6 hPa West 4.8 km/h 14.5 km/h 99 % 1.0 mm 18 W/m2
09:10 9.8 °C 9.7 °C 1026.0 hPa WNW 6.4 km/h 12.9 km/h 99 % 0.8 mm 19 W/m2
09:15 9.8 °C 9.7 °C 1026.0 hPa WNW 3.2 km/h 12.9 km/h 99 % 0.8 mm 28 W/m2
09:20 9.8 °C 9.7 °C 1026.0 hPa SW 1.6 km/h 12.9 km/h 99 % 0.8 mm 28 W/m2
09:25 9.8 °C 9.7 °C 1026.0 hPa WSW 4.8 km/h 11.3 km/h 99 % 0.5 mm 33 W/m2
09:30 9.9 °C 9.7 °C 1025.6 hPa West 4.8 km/h 11.3 km/h 99 % 0.5 mm 51 W/m2
09:35 9.9 °C 9.8 °C 1025.6 hPa WSW 6.4 km/h 16.1 km/h 99 % 0.5 mm 49 W/m2
09:40 9.9 °C 9.8 °C 1025.6 hPa West 12.9 km/h 16.1 km/h 99 % 0.3 mm 42 W/m2
09:45 9.9 °C 9.8 °C 1026.0 hPa WSW 9.7 km/h 14.5 km/h 99 % 0.3 mm 42 W/m2
09:50 10.0 °C 9.9 °C 1026.0 hPa NW 8.0 km/h 14.5 km/h 99 % 0.0 mm 56 W/m2
09:55 10.0 °C 9.9 °C 1026.0 hPa WNW 6.4 km/h 14.5 km/h 99 % 0.0 mm 49 W/m2
10:00 10.0 °C 9.9 °C 1026.0 hPa WSW 6.4 km/h 16.1 km/h 99 % 0.0 mm 63 W/m2
10:05 9.9 °C 9.8 °C 1026.0 hPa WNW 3.2 km/h 16.1 km/h 99 % 0.0 mm 76 W/m2
10:10 10.1 °C 10.0 °C 1026.0 hPa WSW 4.8 km/h 12.9 km/h 99 % 0.0 mm 95 W/m2
10:15 10.1 °C 9.9 °C 1026.0 hPa West 1.6 km/h 11.3 km/h 99 % 0.0 mm 116 W/m2
10:20 10.1 °C 10.0 °C 1026.0 hPa West 4.8 km/h 12.9 km/h 99 % 0.0 mm 95 W/m2
10:25 10.1 °C 9.9 °C 1026.0 hPa WNW 6.4 km/h 17.7 km/h 99 % 0.0 mm 76 W/m2
10:30 10.1 °C 10.0 °C 1026.0 hPa NW 6.4 km/h 17.7 km/h 99 % 0.0 mm 74 W/m2
10:35 10.2 °C 10.0 °C 1026.0 hPa West 9.7 km/h 12.9 km/h 99 % 0.0 mm 79 W/m2
10:40 10.2 °C 10.1 °C 1026.0 hPa West 11.3 km/h 14.5 km/h 99 % 0.0 mm 93 W/m2
10:45 10.4 °C 10.2 °C 1026.0 hPa West 3.2 km/h 14.5 km/h 99 % 0.0 mm 116 W/m2
10:50 10.6 °C 10.5 °C 1026.0 hPa Calm   11.3 km/h 99 % 0.0 mm 139 W/m2
10:55 10.6 °C 10.4 °C 1026.0 hPa WSW 8.0 km/h 12.9 km/h 99 % 0.0 mm 149 W/m2
11:00 10.4 °C 10.2 °C 1026.3 hPa WNW 12.9 km/h 14.5 km/h 99 % 0.0 mm 163 W/m2
11:05 10.4 °C 10.3 °C 1026.3 hPa WNW 6.4 km/h 16.1 km/h 99 % 0.0 mm 172 W/m2
11:10 10.4 °C 10.3 °C 1026.3 hPa WSW 4.8 km/h 16.1 km/h 99 % 0.0 mm 197 W/m2
11:15 10.6 °C 10.4 °C 1026.3 hPa WNW 3.2 km/h 16.1 km/h 99 % 0.0 mm 204 W/m2
11:20 10.6 °C 10.4 °C 1026.3 hPa West 9.7 km/h 12.9 km/h 99 % 0.3 mm 185 W/m2
11:25 10.5 °C 10.3 °C 1026.3 hPa West 9.7 km/h 12.9 km/h 99 % 0.3 mm 156 W/m2
11:30 10.5 °C 10.3 °C 1026.3 hPa West 4.8 km/h 12.9 km/h 99 % 0.3 mm 128 W/m2
11:35 10.4 °C 10.2 °C 1026.3 hPa WSW 8.0 km/h 12.9 km/h 99 % 0.3 mm 127 W/m2
11:40 10.3 °C 10.1 °C 1026.3 hPa WNW 9.7 km/h 14.5 km/h 99 % 0.3 mm 160 W/m2
11:45 10.4 °C 10.2 °C 1026.3 hPa WSW 6.4 km/h 14.5 km/h 99 % 0.3 mm 195 W/m2
11:50 10.3 °C 10.2 °C 1026.3 hPa WSW 9.7 km/h 14.5 km/h 99 % 0.3 mm 253 W/m2
11:55 10.4 °C 10.3 °C 1026.3 hPa West 11.3 km/h 17.7 km/h 99 % 0.3 mm 230 W/m2
12:00 10.6 °C 10.5 °C 1026.3 hPa West 6.4 km/h 17.7 km/h 99 % 0.3 mm 216 W/m2
12:05 10.5 °C 10.3 °C 1026.3 hPa WNW 4.8 km/h 19.3 km/h 99 % 0.3 mm 186 W/m2
12:10 10.4 °C 10.3 °C 1026.3 hPa WNW 4.8 km/h 19.3 km/h 99 % 0.3 mm 172 W/m2
12:15 10.5 °C 10.3 °C 1026.3 hPa WNW 4.8 km/h 17.7 km/h 99 % 0.3 mm 155 W/m2
12:20 10.5 °C 10.3 °C 1026.3 hPa West 4.8 km/h 16.1 km/h 99 % 0.0 mm 149 W/m2
12:25 10.6 °C 10.4 °C 1026.3 hPa West 8.0 km/h 16.1 km/h 99 % 0.0 mm 153 W/m2
12:30 10.6 °C 10.4 °C 1026.3 hPa West 8.0 km/h 17.7 km/h 99 % 0.0 mm 163 W/m2
12:35 10.6 °C 10.4 °C 1026.3 hPa NW 11.3 km/h 17.7 km/h 99 % 0.0 mm 141 W/m2
12:40 10.4 °C 10.3 °C 1026.3 hPa WSW 8.0 km/h 12.9 km/h 99 % 0.0 mm 139 W/m2
12:45 10.5 °C 10.3 °C 1026.0 hPa WSW 3.2 km/h 12.9 km/h 99 % 0.0 mm 176 W/m2
12:50 10.5 °C 10.3 °C 1026.0 hPa WSW 4.8 km/h 11.3 km/h 99 % 0.0 mm 207 W/m2
12:55 10.5 °C 10.3 °C 1026.0 hPa West 8.0 km/h 11.3 km/h 99 % 0.0 mm 218 W/m2
13:00 10.6 °C 10.5 °C 1025.6 hPa West 8.0 km/h 12.9 km/h 99 % 0.0 mm 232 W/m2
13:05 10.7 °C 10.6 °C 1025.6 hPa WSW 4.8 km/h 12.9 km/h 99 % 0.0 mm 313 W/m2
13:10 10.7 °C 10.6 °C 1025.6 hPa SW 8.0 km/h 14.5 km/h 99 % 0.0 mm 258 W/m2
13:15 10.7 °C 10.6 °C 1025.6 hPa WNW 9.7 km/h 14.5 km/h 99 % 0.0 mm 179 W/m2
13:20 10.7 °C 10.4 °C 1025.6 hPa SW 3.2 km/h 17.7 km/h 98 % 0.0 mm 269 W/m2
13:25 10.7 °C 10.4 °C 1025.6 hPa Calm   17.7 km/h 98 % 0.0 mm 269 W/m2
13:30 10.7 °C 10.4 °C 1025.6 hPa WSW 11.3 km/h 16.1 km/h 98 % 0.0 mm 294 W/m2
13:35 10.8 °C 10.6 °C 1025.6 hPa WSW 6.4 km/h 16.1 km/h 99 % 0.0 mm 341 W/m2
13:40 10.8 °C 10.5 °C 1025.6 hPa SW 3.2 km/h 16.1 km/h 98 % 0.0 mm 265 W/m2
13:45 10.7 °C 10.4 °C 1025.6 hPa WNW 14.5 km/h 14.5 km/h 98 % 0.0 mm 188 W/m2
13:50 10.6 °C 10.3 °C 1025.6 hPa WSW 11.3 km/h 16.1 km/h 98 % 0.0 mm 128 W/m2
13:55 10.6 °C 10.3 °C 1025.3 hPa WSW 9.7 km/h 16.1 km/h 98 % 0.0 mm 234 W/m2
14:00 10.7 °C 10.4 °C 1025.3 hPa WSW 14.5 km/h 14.5 km/h 98 % 0.0 mm 200 W/m2
14:05 10.8 °C 10.5 °C 1025.3 hPa SW 1.6 km/h 16.1 km/h 98 % 0.0 mm 241 W/m2
14:10 10.8 °C 10.5 °C 1025.3 hPa WSW 11.3 km/h 16.1 km/h 98 % 0.0 mm 274 W/m2
14:15 11.0 °C 10.7 °C 1025.3 hPa SW 4.8 km/h 16.1 km/h 98 % 0.0 mm 243 W/m2
14:20 10.9 °C 10.6 °C 1025.3 hPa WSW 11.3 km/h 14.5 km/h 98 % 0.0 mm 209 W/m2
14:25 10.9 °C 10.6 °C 1025.3 hPa SW 6.4 km/h 14.5 km/h 98 % 0.0 mm 230 W/m2
14:30 10.8 °C 10.5 °C 1025.3 hPa WSW 11.3 km/h 16.1 km/h 98 % 0.0 mm 214 W/m2
14:40 10.7 °C 10.4 °C 1025.3 hPa WSW 11.3 km/h 17.7 km/h 98 % 0.0 mm 156 W/m2
14:45 10.6 °C 10.3 °C 1025.3 hPa WSW 11.3 km/h 17.7 km/h 98 % 0.0 mm 162 W/m2
14:50 10.5 °C 10.2 °C 1025.3 hPa WSW 9.7 km/h 17.7 km/h 98 % 0.0 mm 144 W/m2
14:55 10.6 °C 10.3 °C 1025.3 hPa West 8.0 km/h 17.7 km/h 98 % 0.0 mm 144 W/m2
15:00 10.6 °C 10.3 °C 1025.3 hPa WSW 3.2 km/h 16.1 km/h 98 % 0.0 mm 86 W/m2
15:05 10.5 °C 10.2 °C 1025.3 hPa WSW 4.8 km/h 16.1 km/h 98 % 0.0 mm 72 W/m2
15:10 10.4 °C 10.1 °C 1025.3 hPa WSW 6.4 km/h 14.5 km/h 98 % 0.0 mm 83 W/m2
15:15 10.4 °C 10.1 °C 1025.3 hPa West 8.0 km/h 14.5 km/h 98 % 0.0 mm 98 W/m2
15:20 10.4 °C 10.1 °C 1025.3 hPa WSW 16.1 km/h 16.1 km/h 98 % 0.0 mm 86 W/m2
15:30 10.4 °C 10.1 °C 1025.3 hPa West 8.0 km/h 16.1 km/h 98 % 0.0 mm 104 W/m2
15:35 10.4 °C 10.1 °C 1025.3 hPa SW 11.3 km/h 14.5 km/h 98 % 0.0 mm 114 W/m2
15:40 10.4 °C 10.1 °C 1025.3 hPa WSW 6.4 km/h 14.5 km/h 98 % 0.0 mm 137 W/m2
15:45 10.4 °C 10.3 °C 1025.3 hPa West 9.7 km/h 17.7 km/h 99 % 0.0 mm 109 W/m2
15:50 10.3 °C 10.0 °C 1024.9 hPa SW 8.0 km/h 17.7 km/h 98 % 0.0 mm 97 W/m2
15:55 10.3 °C 10.0 °C 1024.9 hPa West 6.4 km/h 16.1 km/h 98 % 0.0 mm 107 W/m2
16:00 10.3 °C 10.2 °C 1024.9 hPa WSW 4.8 km/h 16.1 km/h 99 % 0.0 mm 104 W/m2
16:05 10.3 °C 10.2 °C 1024.9 hPa SW 4.8 km/h 14.5 km/h 99 % 0.0 mm 132 W/m2
16:10 10.4 °C 10.3 °C 1024.9 hPa West 6.4 km/h 16.1 km/h 99 % 0.0 mm 128 W/m2
16:15 10.5 °C 10.3 °C 1024.9 hPa WSW 6.4 km/h 16.1 km/h 99 % 0.0 mm 102 W/m2
16:25 10.4 °C 10.1 °C 1024.9 hPa WSW 6.4 km/h 14.5 km/h 98 % 0.0 mm 79 W/m2
16:30 10.4 °C 10.3 °C 1024.9 hPa West 4.8 km/h 19.3 km/h 99 % 0.0 mm 81 W/m2
16:40 10.3 °C 10.0 °C 1024.9 hPa West 6.4 km/h 19.3 km/h 98 % 0.0 mm 77 W/m2
16:45 10.3 °C 10.0 °C 1024.9 hPa West 4.8 km/h 19.3 km/h 98 % 0.0 mm 70 W/m2
16:50 10.3 °C 10.0 °C 1024.9 hPa West 4.8 km/h 14.5 km/h 98 % 0.0 mm 67 W/m2
16:55 10.2 °C 9.9 °C 1024.9 hPa WSW 9.7 km/h 14.5 km/h 98 % 0.0 mm 56 W/m2
17:00 10.2 °C 10.1 °C 1024.9 hPa WNW 6.4 km/h 12.9 km/h 99 % 0.0 mm 56 W/m2
17:05 10.2 °C 10.0 °C 1024.9 hPa WNW 8.0 km/h 14.5 km/h 99 % 0.0 mm 58 W/m2
17:10 10.2 °C 10.0 °C 1024.9 hPa West 6.4 km/h 14.5 km/h 99 % 0.0 mm 58 W/m2
17:15 10.2 °C 10.0 °C 1024.9 hPa West 6.4 km/h 14.5 km/h 99 % 0.0 mm 49 W/m2
17:20 10.1 °C 10.0 °C 1024.9 hPa WSW 9.7 km/h 14.5 km/h 99 % 0.0 mm 51 W/m2
17:25 10.1 °C 10.0 °C 1024.9 hPa West 11.3 km/h 14.5 km/h 99 % 0.0 mm 44 W/m2
17:30 10.1 °C 9.9 °C 1024.9 hPa West 1.6 km/h 12.9 km/h 99 % 0.0 mm 37 W/m2
17:35 10.1 °C 9.9 °C 1024.9 hPa WSW 3.2 km/h 9.7 km/h 99 % 0.0 mm 46 W/m2
17:40 10.1 °C 9.9 °C 1024.9 hPa WSW 8.0 km/h 12.9 km/h 99 % 0.0 mm 26 W/m2
17:45 10.0 °C 9.9 °C 1024.9 hPa WSW 4.8 km/h 12.9 km/h 99 % 0.0 mm 30 W/m2
17:50 10.0 °C 9.9 °C 1024.9 hPa WSW 6.4 km/h 11.3 km/h 99 % 0.0 mm 51 W/m2
17:55 9.9 °C 9.8 °C 1024.9 hPa West 6.4 km/h 12.9 km/h 99 % 0.0 mm 35 W/m2
18:00 9.9 °C 9.8 °C 1024.9 hPa WSW 3.2 km/h 14.5 km/h 99 % 0.0 mm 25 W/m2
18:05 9.9 °C 9.7 °C 1024.9 hPa WNW 8.0 km/h 14.5 km/h 99 % 0.0 mm 19 W/m2
18:10 9.8 °C 9.7 °C 1024.9 hPa West 6.4 km/h 14.5 km/h 99 % 0.0 mm 9 W/m2
18:15 9.8 °C 9.6 °C 1024.9 hPa West 4.8 km/h 14.5 km/h 99 % 0.0 mm 7 W/m2
18:20 9.7 °C 9.6 °C 1024.9 hPa West 6.4 km/h 14.5 km/h 99 % 0.0 mm 7 W/m2
18:25 9.7 °C 9.6 °C 1024.9 hPa West 4.8 km/h 12.9 km/h 99 % 0.0 mm 7 W/m2
18:30 9.7 °C 9.5 °C 1025.3 hPa West 14.5 km/h 14.5 km/h 99 % 0.0 mm 0 W/m2
18:35 9.7 °C 9.5 °C 1025.3 hPa West 6.4 km/h 14.5 km/h 99 % 0.0 mm 0 W/m2
18:40 9.6 °C 9.5 °C 1025.3 hPa WNW 3.2 km/h 14.5 km/h 99 % 0.0 mm 0 W/m2
18:45 9.6 °C 9.5 °C 1025.3 hPa West 4.8 km/h 11.3 km/h 99 % 0.0 mm 0 W/m2
18:50 9.6 °C 9.5 °C 1025.3 hPa WNW 1.6 km/h 11.3 km/h 99 % 0.0 mm 0 W/m2
18:55 9.6 °C 9.5 °C 1025.3 hPa West 6.4 km/h 9.7 km/h 99 % 0.0 mm 0 W/m2
19:00 9.7 °C 9.5 °C 1025.3 hPa WNW 8.0 km/h 11.3 km/h 99 % 0.0 mm 0 W/m2
19:05 9.7 °C 9.5 °C 1025.3 hPa West 4.8 km/h 11.3 km/h 99 % 0.0 mm 0 W/m2
19:10 9.7 °C 9.5 °C 1025.3 hPa West 6.4 km/h 11.3 km/h 99 % 0.0 mm 0 W/m2
19:15 9.7 °C 9.5 °C 1025.6 hPa WNW 1.6 km/h 9.7 km/h 99 % 0.0 mm 0 W/m2
19:20 9.7 °C 9.5 °C 1025.6 hPa West 11.3 km/h 12.9 km/h 99 % 0.0 mm 0 W/m2
19:25 9.6 °C 9.5 °C 1025.6 hPa West 4.8 km/h 12.9 km/h 99 % 0.0 mm 0 W/m2
19:30 9.6 °C 9.5 °C 1025.6 hPa West 3.2 km/h 11.3 km/h 99 % 0.0 mm 0 W/m2
19:35 9.6 °C 9.5 °C 1025.6 hPa West 1.6 km/h 11.3 km/h 99 % 0.0 mm 0 W/m2
19:40 9.7 °C 9.5 °C 1025.6 hPa West 3.2 km/h 9.7 km/h 99 % 0.0 mm 0 W/m2
19:45 9.7 °C 9.5 °C 1025.6 hPa West 4.8 km/h 8.0 km/h 99 % 0.0 mm 0 W/m2
19:50 9.8 °C 9.6 °C 1025.6 hPa WNW 6.4 km/h 11.3 km/h 99 % 0.0 mm 0 W/m2
19:55 9.8 °C 9.7 °C 1025.6 hPa WNW 6.4 km/h 11.3 km/h 99 % 0.0 mm 0 W/m2
20:00 9.8 °C 9.7 °C 1026.0 hPa WNW 8.0 km/h 9.7 km/h 99 % 0.0 mm 0 W/m2
20:05 9.8 °C 9.6 °C 1026.0 hPa NW 9.7 km/h 12.9 km/h 99 % 0.0 mm 0 W/m2
20:10 9.8 °C 9.6 °C 1026.0 hPa West 8.0 km/h 12.9 km/h 99 % 0.0 mm 0 W/m2
20:15 9.7 °C 9.6 °C 1025.6 hPa WNW 3.2 km/h 12.9 km/h 99 % 0.0 mm 0 W/m2
20:20 9.7 °C 9.6 °C 1025.6 hPa West 3.2 km/h 12.9 km/h 99 % 0.0 mm 0 W/m2
20:25 9.7 °C 9.6 °C 1025.6 hPa West 6.4 km/h 9.7 km/h 99 % 0.0 mm 0 W/m2
20:30 9.7 °C 9.5 °C 1025.6 hPa WNW 8.0 km/h 9.7 km/h 99 % 0.0 mm 0 W/m2
20:35 9.7 °C 9.5 °C 1025.6 hPa WNW 4.8 km/h 11.3 km/h 99 % 0.0 mm 0 W/m2
20:40 9.7 °C 9.5 °C 1026.0 hPa West 1.6 km/h 11.3 km/h 99 % 0.0 mm 0 W/m2
20:45 9.6 °C 9.5 °C 1025.6 hPa West 1.6 km/h 8.0 km/h 99 % 0.0 mm 0 W/m2
20:50 9.6 °C 9.5 °C 1025.6 hPa West 1.6 km/h 6.4 km/h 99 % 0.0 mm 0 W/m2
20:55 9.6 °C 9.4 °C 1026.0 hPa West 4.8 km/h 6.4 km/h 99 % 0.0 mm 0 W/m2
21:00 9.6 °C 9.4 °C 1026.0 hPa West 4.8 km/h 9.7 km/h 99 % 0.0 mm 0 W/m2
21:05 9.6 °C 9.4 °C 1026.0 hPa WSW 1.6 km/h 9.7 km/h 99 % 0.0 mm 0 W/m2
21:10 9.6 °C 9.4 °C 1026.0 hPa WSW 1.6 km/h 9.7 km/h 99 % 0.0 mm 0 W/m2
21:15 9.6 °C 9.4 °C 1026.0 hPa West 1.6 km/h 9.7 km/h 99 % 0.0 mm 0 W/m2
21:20 9.6 °C 9.4 °C 1026.0 hPa WNW 6.4 km/h 8.0 km/h 99 % 0.0 mm 0 W/m2
21:25 9.6 °C 9.4 °C 1026.0 hPa West 3.2 km/h 8.0 km/h 99 % 0.0 mm 0 W/m2
21:30 9.6 °C 9.4 °C 1026.0 hPa West 4.8 km/h 9.7 km/h 99 % 0.0 mm 0 W/m2
21:35 9.5 °C 9.4 °C 1026.0 hPa West 3.2 km/h 9.7 km/h 99 % 0.0 mm 0 W/m2
21:40 9.5 °C 9.4 °C 1026.0 hPa West 4.8 km/h 9.7 km/h 99 % 0.0 mm 0 W/m2
21:45 9.6 °C 9.4 °C 1026.0 hPa WNW 8.0 km/h 9.7 km/h 99 % 0.0 mm 0 W/m2
21:50 9.6 °C 9.4 °C 1026.0 hPa West 3.2 km/h 9.7 km/h 99 % 0.0 mm 0 W/m2
21:55 9.6 °C 9.4 °C 1026.0 hPa West 4.8 km/h 12.9 km/h 99 % 0.0 mm 0 W/m2
22:00 9.6 °C 9.4 °C 1026.0 hPa West 4.8 km/h 12.9 km/h 99 % 0.0 mm 0 W/m2
22:05 9.5 °C 9.4 °C 1026.0 hPa West 1.6 km/h 14.5 km/h 99 % 0.0 mm 0 W/m2
22:10 9.6 °C 9.4 °C 1026.0 hPa WSW 1.6 km/h 14.5 km/h 99 % 0.0 mm 0 W/m2
22:15 9.6 °C 9.4 °C 1025.6 hPa SW 3.2 km/h 9.7 km/h 99 % 0.0 mm 0 W/m2
22:20 9.6 °C 9.4 °C 1026.0 hPa SW 4.8 km/h 9.7 km/h 99 % 0.0 mm 0 W/m2
22:25 9.5 °C 9.4 °C 1026.0 hPa Calm   6.4 km/h 99 % 0.0 mm 0 W/m2
22:30 9.5 °C 9.4 °C 1026.0 hPa WSW 4.8 km/h 6.4 km/h 99 % 0.0 mm 0 W/m2
22:35 9.6 °C 9.4 °C 1026.0 hPa WSW 3.2 km/h 6.4 km/h 99 % 0.0 mm 0 W/m2
22:40 9.5 °C 9.4 °C 1026.0 hPa SW 3.2 km/h 8.0 km/h 99 % 0.0 mm 0 W/m2
22:45 9.5 °C 9.4 °C 1026.0 hPa WSW 4.8 km/h 9.7 km/h 99 % 0.0 mm 0 W/m2
22:50 9.6 °C 9.4 °C 1026.0 hPa West 4.8 km/h 9.7 km/h 99 % 0.0 mm 0 W/m2
22:55 9.6 °C 9.4 °C 1026.3 hPa WSW 4.8 km/h 8.0 km/h 99 % 0.0 mm 0 W/m2
23:00 9.6 °C 9.5 °C 1026.3 hPa West 3.2 km/h 8.0 km/h 99 % 0.0 mm 0 W/m2
23:05 9.6 °C 9.5 °C 1026.3 hPa West 1.6 km/h 8.0 km/h 99 % 0.0 mm 0 W/m2
23:10 9.6 °C 9.5 °C 1026.3 hPa West 1.6 km/h 8.0 km/h 99 % 0.0 mm 0 W/m2
23:15 9.6 °C 9.4 °C 1026.3 hPa WNW 1.6 km/h 8.0 km/h 99 % 0.0 mm 0 W/m2
23:20 9.6 °C 9.4 °C 1026.3 hPa West 6.4 km/h 6.4 km/h 99 % 0.0 mm 0 W/m2
23:25 9.6 °C 9.5 °C 1026.0 hPa West 3.2 km/h 6.4 km/h 99 % 0.0 mm 0 W/m2
23:30 9.6 °C 9.5 °C 1026.3 hPa West 3.2 km/h 6.4 km/h 99 % 0.0 mm 0 W/m2
23:35 9.6 °C 9.5 °C 1026.0 hPa Calm   4.8 km/h 99 % 0.0 mm 0 W/m2
23:40 9.7 °C 9.5 °C 1026.0 hPa Calm   4.8 km/h 99 % 0.0 mm 0 W/m2
23:45 9.7 °C 9.5 °C 1026.0 hPa Calm   1.6 km/h 99 % 0.0 mm 0 W/m2
23:50 9.7 °C 9.6 °C 1026.0 hPa Calm   1.6 km/h 99 % 0.0 mm 0 W/m2
23:55 9.7 °C 9.6 °C 1026.0 hPa Calm   1.6 km/h 99 % 0.0 mm 0 W/m2
Avec l'autorisation de Weather Underground - 1.75 mb